Cosmos 1703 Rocket - Orbit

View from above orbital plane
View from above orbital plane
View from above satellite
View from above satellite

Ground track
Ground track

The orbit data is extracted from the following two-line orbital elements,

1 16263U 85108B   13145.17557378  .00000396  00000-0  46669-4 0  3499
2 16263 082.5060 065.7096 0020543 188.7926 285.8474 14.82065064484492
Epoch (UTC): 25 May 2013 04:12:49
Eccentricity: 0.0020543
inclination: 82.5060°
perigee height: 608 km
apogee height: 637 km
right ascension of ascending node: 65.7096°
argument of perigee: 188.7926°
revolutions per day: 14.82065064
mean anomaly at epoch: 285.8474°
orbit number at epoch: 48449

The dashed part of the orbit path shows where the satellite is in the earth's shadow,  

Developed and maintained by Chris Peat, Heavens-Above GmbH. Please read the updated FAQ before sending e-mail. Imprint. DLR